This is the latest recevied weather packets stored in our database for station/object N8TWM-13. If no packets are shown the sender has not sent any weather packets the latest 10 day(s).
| Time | Temp. | Humidity | Pressure | Rain* | Wind** | Luminosity | Snow |
|---|---|---|---|---|---|---|---|
| 1778161373 | 8.89° C | 68% | 1013.8 hPa | 0 mm | - | 567 W/m² | - |
| 1778161068 | 8.89° C | 70% | 1013.7 hPa | 0 mm | - | 522 W/m² | - |
| 1778160765 | 8.89° C | 69% | 1014 hPa | 0 mm | - | 561 W/m² | - |
| 1778160463 | 8.89° C | 71% | 1013.7 hPa | 0 mm | - | 275 W/m² | - |
| 1778160159 | 8.89° C | 72% | 1013.7 hPa | 0 mm | - | 267 W/m² | - |
| 1778159856 | 8.33° C | 72% | 1014 hPa | 0 mm | - | 175 W/m² | - |
| 1778159554 | 7.78° C | 72% | 1013.7 hPa | 0 mm | - | 228 W/m² | - |
| 1778159250 | 7.78° C | 73% | 1014.1 hPa | 0 mm | - | 185 W/m² | - |
| 1778158948 | 7.78° C | 72% | 1013.6 hPa | 0 mm | - | 159 W/m² | - |
| 1778158646 | 8.33° C | 73% | 1013.8 hPa | 0 mm | - | 234 W/m² | - |
| 1778158344 | 7.78° C | 73% | 1013.7 hPa | 0 mm | - | 289 W/m² | - |
| 1778158040 | 7.78° C | 72% | 1014 hPa | 0 mm | - | 259 W/m² | - |
| 1778157737 | 7.78° C | 73% | 1014 hPa | 0 mm | - | 211 W/m² | - |
| 1778157436 | 7.78° C | 73% | 1014.1 hPa | 0 mm | - | 300 W/m² | - |
| 1778157133 | 7.78° C | 73% | 1013.7 hPa | 0 mm | - | 192 W/m² | - |
| 1778156827 | 7.78° C | 74% | 1013.8 hPa | 0 mm | - | 263 W/m² | - |
| 1778156524 | 7.22° C | 74% | 1013.8 hPa | 0 mm | - | 260 W/m² | - |
| 1778156220 | 7.22° C | 74% | 1013.6 hPa | 0 mm | - | 188 W/m² | - |
| 1778155916 | 7.22° C | 75% | 1013.7 hPa | 0 mm | - | 184 W/m² | - |
| 1778155612 | 7.22° C | 75% | 1013.6 hPa | 0 mm | - | 111 W/m² | - |
| 1778155309 | 6.67° C | 75% | 1013.8 hPa | 0 mm | - | 93 W/m² | - |
| 1778155005 | 6.67° C | 75% | 1013.7 hPa | 0 mm | - | 147 W/m² | - |
| 1778154701 | 6.67° C | 76% | 1013.7 hPa | 0 mm | - | 143 W/m² | - |
| 1778154397 | 7.22° C | 77% | 1013.5 hPa | 0 mm | - | 138 W/m² | - |
| 1778154094 | 6.67° C | 78% | 1013.6 hPa | 0 mm | - | 123 W/m² | - |
* Rain latest hour (hover to see other rain measurements)
** Current wind speed in m/s (hover to see current wind gust speed)